Theta_e
302 302 302 302 302 301 302 302 302 302 302 302 300 298 301 304 304 302 308 311 310 310 312 314 313 310 311 312 311 313 315 314 313 313 312 312 312 312 313 313 314 313 314 314 315 315 315 316 317 317 319 320 320 321 321 320 321 322 322 322 323 326 326 322 319 322 324 322 323 322 321 322 322 321 325 324 324 324 321 325 328 324 321 322 322 319 321
302 302 302 302 302 301 302 302 302 302 302 302 301 300 302 304 305 305 310 314 313 312 313 315 315 314 314 314 313 315 316 315 315 315 314 314 314 313 314 314 314 314 314 314 315 315 314 316 317 317 319 321 320 321 320 320 321 322 324 325 324 324 326 324 319 319 321 320 321 321 320 321 320 322 324 323 325 326 324 331 332 325 322 322 320 318 321
303 303 303 303 302 302 302 302 302 302 302 302 301 301 303 306 307 308 311 313 313 314 313 313 313 314 315 315 316 316 317 316 316 315 315 317 316 315 316 316 315 315 315 314 315 316 315 316 318 319 320 321 322 323 321 321 323 323 326 327 323 325 329 325 319 318 318 318 319 320 321 322 321 323 324 322 325 324 323 327 324 321 327 328 321 319 325
303 304 304 303 303 303 303 302 302 302 302 302 301 300 304 307 308 309 312 313 313 314 313 312 312 312 313 315 316 316 316 317 317 317 317 318 318 318 318 319 318 317 317 316 316 316 316 316 318 321 321 321 324 326 325 326 326 328 332 331 328 333 334 328 324 323 320 321 324 327 326 322 320 321 322 322 324 324 326 325 321 324 329 326 326 329 328
304 304 304 304 303 303 303 303 303 302 302 302 300 301 305 307 308 311 313 312 312 312 313 312 311 311 313 314 316 316 317 317 318 319 318 319 319 319 319 320 320 320 320 320 319 318 318 318 318 320 320 321 323 324 325 328 328 331 338 336 332 332 329 326 329 328 325 325 328 329 326 322 321 322 322 322 323 324 325 323 325 334 327 318 334 348 333
304 305 304 304 304 303 303 303 303 303 303 302 301 302 306 308 309 311 311 310 311 311 312 311 310 311 313 313 314 314 315 316 318 319 318 318 319 320 320 320 320 321 321 321 321 321 321 321 320 320 321 322 322 321 324 328 328 330 333 333 332 328 323 323 326 326 325 326 326 326 326 324 323 323 322 323 324 324 324 324 330 338 326 319 340 355 339
304 304 304 304 304 303 303 303 303 303 303 303 302 303 306 307 308 309 309 309 310 310 310 311 311 312 312 313 313 314 316 317 317 317 317 318 318 319 320 321 321 322 322 322 323 323 321 321 323 323 323 323 323 323 324 327 329 329 329 331 330 326 326 329 325 321 324 325 324 325 325 323 323 323 323 324 324 323 324 325 329 333 329 327 342 354 345
304 304 304 304 304 303 303 303 303 303 303 303 302 302 304 305 305 306 306 307 308 309 310 312 312 311 311 311 313 315 317 317 315 314 315 318 319 319 321 322 321 321 323 325 326 325 323 323 325 326 325 326 327 326 326 328 329 329 329 330 329 326 330 334 327 321 322 324 323 324 323 323 322 322 324 324 324 324 324 325 328 330 332 333 337 343 343
304 304 303 304 304 304 303 304 303 303 303 304 303 302 302 302 302 304 305 306 307 309 310 310 310 309 310 311 312 313 314 313 312 313 315 316 318 319 319 318 317 318 322 325 326 324 323 322 324 325 325 326 327 328 328 328 330 332 331 329 330 330 330 331 327 321 321 323 323 323 322 323 321 320 323 323 322 323 323 325 328 328 330 334 331 331 334
303 303 303 303 304 304 304 304 304 303 303 304 303 303 302 301 301 303 305 306 307 308 308 309 309 309 310 312 312 311 311 311 311 314 316 316 316 317 316 314 314 317 320 324 324 321 319 319 320 322 323 324 324 325 327 327 328 333 335 332 332 332 330 329 327 323 322 324 324 322 321 320 319 320 324 324 323 324 323 325 328 329 330 332 329 328 333
303 303 303 303 303 304 304 304 304 303 303 303 303 303 303 302 301 302 304 305 306 307 308 308 309 309 309 310 310 309 309 309 310 313 315 315 315 315 314 314 314 316 319 321 320 316 316 318 320 320 322 323 323 324 326 327 326 330 336 335 333 332 330 331 330 324 324 326 324 322 321 318 320 325 326 325 325 325 324 324 326 328 330 333 333 334 340
303 303 303 303 303 303 304 304 304 304 304 303 303 303 304 303 301 302 303 304 305 306 307 307 308 309 309 309 309 309 309 310 310 312 312 312 313 314 314 313 315 318 320 318 316 315 318 322 322 321 321 321 322 323 324 326 327 327 330 332 333 332 330 331 331 326 325 326 323 321 321 322 327 333 331 327 325 325 326 327 328 329 330 333 337 337 342
302 303 302 303 303 303 303 303 303 304 304 304 303 303 304 304 302 302 303 303 303 304 305 306 307 308 308 309 309 309 310 311 311 311 312 312 313 313 313 313 316 318 316 314 315 317 322 327 327 326 325 323 324 326 326 326 328 329 328 328 330 332 330 329 331 327 325 325 323 322 325 328 332 333 330 329 328 326 325 325 329 333 331 331 334 335 340
302 302 302 302 303 303 303 303 303 303 304 304 304 303 303 304 303 302 302 302 303 304 305 305 307 307 308 309 309 310 310 310 310 311 312 312 312 312 313 314 314 313 313 314 318 321 326 331 330 329 329 328 328 329 330 329 328 329 330 329 329 331 331 330 329 328 327 325 323 324 327 328 330 332 333 332 330 329 327 326 330 337 335 332 335 337 339
302 302 302 302 302 302 303 303 303 303 303 303 303 303 303 304 304 303 302 302 302 303 304 305 306 307 308 309 309 309 308 309 310 311 311 312 312 312 313 312 312 313 315 318 322 326 329 331 330 328 329 329 328 328 330 332 330 328 332 333 330 331 334 334 330 328 328 325 324 326 325 324 329 333 334 333 332 332 333 330 332 338 336 333 335 338 340
303 302 302 302 302 302 302 303 302 302 303 303 303 303 303 303 304 303 302 302 302 303 305 306 306 307 308 308 309 308 308 309 310 310 311 312 312 312 311 310 312 317 320 322 325 326 327 329 329 329 328 328 327 327 329 331 331 331 332 332 331 331 336 337 330 327 328 326 325 326 324 326 334 336 333 333 332 333 332 328 329 337 337 334 335 336 338
302 302 302 302 302 302 302 302 302 302 303 303 303 303 303 303 304 303 302 302 303 303 304 305 305 306 306 307 307 308 309 310 310 310 311 311 311 311 310 309 312 319 322 325 328 328 327 328 328 327 328 329 328 327 329 330 330 331 332 333 337 339 338 334 327 326 328 327 325 325 326 331 335 333 332 333 332 333 331 324 327 338 339 335 335 335 336
302 302 302 302 302 302 302 302 302 302 302 303 302 303 304 304 304 303 302 302 303 303 303 304 305 306 307 307 308 309 310 310 309 309 309 310 311 311 309 308 311 316 322 327 329 329 328 328 328 327 328 329 327 327 329 329 328 332 335 338 343 348 346 337 330 327 328 328 326 326 329 334 335 331 332 333 331 330 328 326 332 339 337 334 335 334 335
302 302 302 302 302 302 302 302 302 302 302 302 302 303 304 304 304 303 303 302 303 303 303 304 304 305 305 307 308 309 309 308 308 308 307 309 311 310 308 311 313 314 320 326 328 328 329 329 328 328 329 330 330 330 330 329 330 334 335 336 341 345 346 341 336 331 330 329 327 327 329 332 331 330 332 332 330 329 330 333 335 336 334 334 335 333 333
302 302 302 302 302 302 302 302 302 302 302 302 302 303 303 304 304 303 303 302 302 303 303 303 303 304 304 306 306 307 307 307 308 308 307 310 310 308 311 317 316 313 318 326 327 327 330 329 328 328 329 331 331 330 330 331 333 334 333 333 336 337 339 341 340 337 336 335 329 327 330 332 330 330 334 335 333 332 334 335 336 336 336 338 338 338 340
302 302 302 302 302 302 302 302 302 302 302 302 302 303 303 303 304 303 303 302 302 303 303 304 304 305 305 306 306 307 307 307 309 309 308 309 309 307 310 314 312 310 316 325 326 326 327 327 327 327 328 328 329 330 332 333 333 332 331 335 337 334 336 342 341 338 342 343 336 330 331 332 330 330 334 336 337 336 336 338 338 339 340 341 342 343 343
302 302 302 302 303 302 302 302 302 302 302 302 302 303 303 303 303 303 303 303 302 303 303 303 304 303 303 304 304 305 305 305 307 308 307 307 308 307 308 310 310 309 314 321 325 324 323 324 326 327 328 328 328 330 331 332 332 332 331 331 334 334 335 339 340 340 342 343 338 333 333 332 330 329 331 333 336 337 337 338 339 339 340 341 341 341 341
302 302 302 302 302 302 302 302 302 302 302 302 302 303 303 303 303 303 303 303 303 303 303 302 302 302 302 302 302 302 303 304 304 305 305 305 307 308 308 309 309 309 312 317 321 323 323 323 325 326 327 328 329 328 330 331 331 330 330 329 331 331 331 334 340 341 339 337 334 331 332 331 329 327 328 329 331 332 333 333 333 333 334 336 336 336 336
302 302 302 302 302 302 302 302 302 302 302 302 302 303 303 303 303 303 303 303 303 303 303 303 303 303 302 302 303 304 304 305 305 305 305 306 307 308 309 309 309 310 312 313 314 317 321 323 325 326 326 328 328 327 330 331 328 327 329 330 330 329 328 330 335 337 337 339 337 331 330 331 329 327 327 327 327 328 328 328 328 329 330 332 332 332 332
302 302 302 302 302 302 302 302 302 302 303 303 303 303 303 303 303 303 303 303 303 302 302 302 303 303 302 302 303 304 304 305 305 306 306 307 307 308 310 310 310 311 312 311 311 314 318 321 325 327 327 328 327 325 325 328 327 326 328 330 330 329 329 330 333 333 334 338 337 331 328 329 328 327 328 328 327 327 326 325 326 327 328 329 329 329 330
302 302 303 302 302 302 302 302 302 303 303 303 303 303 304 303 303 303 303 303 303 302 301 302 303 303 303 303 302 302 303 304 304 305 306 307 308 308 309 310 311 311 311 311 311 313 315 317 322 326 327 328 328 325 324 326 328 327 328 327 326 327 328 328 331 332 332 332 332 331 332 331 328 327 327 327 327 326 326 326 326 326 326 326 326 327 327
302 302 302 302 302 302 302 302 303 302 303 303 303 303 304 303 303 303 303 303 302 302 302 302 303 303 302 302 302 303 305 305 305 305 306 307 307 307 308 309 310 310 311 311 312 313 315 317 320 323 327 328 328 326 326 327 328 329 329 326 324 326 327 326 328 332 334 332 331 332 336 336 332 327 326 327 327 327 326 326 326 326 326 326 326 327 327
302 302 302 302 302 302 302 302 303 302 303 303 303 303 303 303 303 302 302 302 302 302 302 302 302 302 303 303 304 305 306 306 307 307 308 308 308 308 308 308 309 310 310 312 312 313 314 315 316 321 326 328 327 327 328 328 327 327 327 325 323 325 325 324 327 331 331 330 329 329 332 333 330 326 325 325 327 327 327 326 326 325 326 326 326 326 325
303 302 302 302 302 303 303 303 302 303 303 303 303 303 302 302 302 302 302 302 302 302 302 302 303 304 305 305 305 305 306 307 307 308 308 309 310 310 310 310 310 311 311 312 312 312 312 312 314 317 320 323 325 327 328 327 326 325 325 324 324 325 325 325 327 328 326 325 326 326 327 327 325 324 324 323 324 325 324 324 324 324 324 324 325 324 323
302 302 302 302 302 302 303 302 303 303 303 303 303 302 302 302 304 304 303 302 301 301 302 304 305 305 306 305 305 306 307 308 308 309 309 310 310 311 311 312 311 312 312 311 311 312 313 314 315 316 316 319 325 327 327 326 326 324 323 324 325 325 325 324 326 326 324 323 323 324 324 324 323 322 322 322 322 322 321 320 321 321 322 322 323 322 322
302 302 302 302 302 302 302 302 302 302 303 303 302 302 303 303 304 304 303 302 302 302 303 304 305 305 306 306 306 307 309 309 310 310 310 310 311 311 312 312 312 312 312 312 311 312 313 314 314 315 317 319 324 325 323 325 325 323 322 324 325 323 323 323 324 324 323 322 322 321 322 322 322 322 322 321 320 320 320 319 319 319 320 320 320 320 320
302 302 302 302 302 302 302 303 303 302 303 302 302 302 302 302 302 303 303 303 304 304 303 304 304 305 306 306 307 308 310 311 311 312 312 311 311 311 311 312 312 312 311 311 311 313 314 314 315 317 319 319 321 322 321 322 323 322 322 324 323 322 322 323 323 323 323 322 322 323 323 322 320 321 321 320 319 319 319 319 319 318 318 318 318 318 318
302 302 302 302 302 303 303 303 302 302 302 301 301 301 301 301 301 303 304 304 305 304 303 304 305 305 305 306 308 310 311 312 312 313 313 312 311 311 311 311 311 311 311 311 312 313 313 314 316 319 321 320 321 321 321 321 321 321 322 322 322 322 322 323 322 322 322 322 322 323 323 321 320 320 319 319 318 317 317 318 317 317 316 315 316 316 316
302 302 302 302 302 302 302 302 301 301 301 301 301 303 303 302 303 304 304 305 305 304 303 304 305 305 305 307 310 311 311 312 313 313 313 312 310 310 310 309 310 311 313 312 312 313 314 316 319 321 322 321 322 322 321 320 320 321 321 321 320 321 322 323 323 322 321 321 321 320 319 319 318 317 316 315 314 315 315 315 314 314 314 315 315 315 315
302 302 302 302 302 301 301 301 301 301 301 302 303 305 304 304 305 305 306 305 304 304 305 305 305 305 306 309 312 312 310 311 312 312 312 312 311 310 311 311 310 311 312 312 314 316 318 320 322 322 321 321 322 322 321 320 320 321 321 320 320 320 321 321 322 322 321 320 320 319 316 315 315 314 314 314 314 315 316 315 314 314 315 316 316 316 315
302 302 301 301 301 301 301 301 301 301 303 304 305 305 305 305 305 306 306 306 305 306 306 306 306 306 306 308 310 310 309 311 312 311 311 313 312 311 312 312 311 311 313 315 318 320 321 321 322 321 321 321 321 321 320 320 320 321 320 319 319 320 320 320 320 320 320 319 319 317 315 314 315 316 317 317 317 317 318 317 316 316 316 317 317 317 317
301 301 301 301 301 301 303 303 303 303 305 305 305 306 306 306 306 306 307 306 306 306 306 306 306 306 306 307 307 307 308 311 312 311 311 314 314 313 313 312 313 315 318 320 320 320 321 321 321 321 320 321 321 320 320 320 320 320 319 318 318 319 319 319 319 319 318 318 318 317 316 316 317 318 318 318 318 318 318 318 318 318 318 318 318 318 318
301 301 301 301 302 304 305 304 304 304 305 305 305 306 306 306 306 307 306 306 306 306 305 305 305 305 305 305 306 306 307 309 311 312 313 314 314 314 314 314 315 318 320 320 320 320 321 321 320 320 320 320 320 320 320 320 320 319 319 318 318 318 318 318 318 318 318 319 318 318 318 318 318 319 318 318 318 318 318 318 318 318 318 318 319 318 318
301 302 302 302 303 304 305 305 305 305 305 305 305 306 306 307 307 307 307 307 307 307 306 306 306 305 304 305 306 307 307 308 312 314 314 314 314 314 315 315 317 318 319 319 319 320 321 321 320 320 320 320 320 320 320 320 319 319 318 318 318 318 318 319 318 318 319 319 319 318 318 318 318 318 318 318 318 318 318 318 318 318 318 318 318 318 318
303 303 303 303 304 305 305 305 305 305 305 305 306 306 306 307 307 307 308 308 307 307 307 307 307 306 305 305 307 308 308 309 312 314 315 315 314 315 316 317 318 319 320 320 320 320 320 321 321 321 321 320 320 320 320 320 320 320 319 318 319 318 318 318 318 318 318 318 318 318 318 319 318 318 318 318 319 319 319 319 318 319 319 318 318 318 318
303 304 304 304 304 305 305 306 306 305 306 306 306 306 306 307 307 308 308 308 308 309 308 309 310 310 307 306 306 307 308 309 311 313 315 315 314 316 318 318 318 320 321 320 319 320 320 320 321 321 321 320 320 320 321 321 320 320 320 319 319 319 319 319 319 319 319 319 319 319 319 319 319 318 319 319 319 319 319 319 319 319 318 318 318 318 319
303 303 303 304 305 305 305 306 306 306 306 306 306 306 305 305 306 307 308 308 309 309 309 310 312 311 309 308 308 308 309 310 311 313 315 315 314 316 317 316 318 321 321 317 317 320 321 321 321 321 319 318 318 320 321 321 321 320 320 319 319 319 319 319 319 319 319 319 319 319 319 319 319 319 319 319 319 319 318 319 319 318 318 318 319 319 319
303 303 304 304 304 305 305 305 305 305 305 305 304 305 305 305 306 307 308 309 309 310 310 310 311 310 310 310 311 311 311 311 312 314 316 315 314 315 317 317 319 319 316 314 316 321 322 320 320 320 319 319 318 318 318 320 321 321 320 320 319 318 319 319 319 319 318 318 319 319 318 318 318 318 318 318 318 317 317 317 317 318 318 318 319 319 319
304 304 304 304 304 304 305 305 304 305 306 305 305 305 307 307 307 308 308 310 311 311 311 311 311 311 311 311 312 313 313 313 312 314 316 316 314 315 316 317 317 316 315 315 319 321 320 319 319 318 318 319 319 318 317 318 319 320 320 320 319 318 318 318 318 318 318 318 318 318 318 318 318 318 318 317 317 316 316 316 317 318 318 318 319 319 319
305 304 304 305 304 304 305 306 305 305 306 307 306 306 306 306 307 307 308 309 310 310 310 310 311 312 313 313 313 314 314 314 314 315 315 315 315 315 316 317 317 316 315 316 318 319 319 318 317 316 316 317 318 319 319 318 318 318 319 319 318 318 317 317 317 317 317 318 318 318 318 318 318 318 318 318 317 317 317 318 318 318 318 318 318 318 319
304 304 303 305 305 304 305 306 306 306 307 307 307 307 307 306 306 307 307 308 309 309 309 309 310 312 314 314 314 313 312 313 316 315 314 315 316 315 314 315 316 316 316 317 318 319 318 317 316 316 317 318 318 318 318 317 317 318 318 317 317 317 317 316 317 317 317 317 317 317 317 317 317 318 318 318 318 318 319 319 319 318 318 318 318 318 319
304 303 303 304 305 304 305 306 305 305 306 306 306 306 306 306 306 307 308 307 307 308 309 309 310 312 313 313 313 312 311 313 316 315 313 315 317 316 314 315 316 316 316 318 318 318 318 317 317 318 319 318 318 318 317 317 317 317 317 317 317 316 315 316 316 316 317 316 316 316 316 316 317 317 317 317 318 318 318 318 318 318 318 318 318 318 319
304 304 304 304 305 305 306 305 304 304 305 305 305 306 306 306 307 309 309 308 308 309 310 311 313 314 312 311 311 312 312 313 315 314 312 314 316 316 316 317 317 315 316 317 316 316 318 318 318 318 319 318 317 317 316 316 316 316 316 316 316 315 315 315 315 315 315 314 314 314 315 316 317 317 317 317 318 318 318 318 318 318 318 318 319 319 320
304 304 304 304 304 304 304 304 304 305 307 306 305 306 308 309 310 310 310 310 310 311 311 311 312 313 311 310 311 313 313 313 315 314 312 314 316 316 317 318 318 317 317 317 317 317 318 317 317 318 319 318 317 316 316 316 316 316 316 316 316 315 315 315 314 314 314 313 312 313 313 314 315 316 317 317 317 318 318 318 319 319 319 319 319 319 319
304 304 304 305 306 306 305 304 305 308 309 308 307 308 309 310 311 310 310 310 311 311 311 311 311 310 310 311 313 313 312 313 315 316 314 315 317 317 317 319 319 318 318 318 318 317 318 318 317 318 318 317 316 316 316 315 315 316 316 316 315 316 315 315 315 314 314 313 313 313 313 313 314 314 315 316 317 317 317 317 318 318 318 318 318 318 319
305 305 305 305 306 307 306 307 308 308 309 309 309 309 309 310 310 310 311 312 312 312 312 312 311 311 312 313 314 313 312 313 316 318 317 317 318 318 319 319 319 318 318 318 318 318 318 318 317 317 318 317 316 315 315 315 315 315 316 315 315 316 316 316 315 315 315 314 314 313 313 313 313 313 313 314 315 316 316 316 316 315 316 316 317 317 317
306 306 306 306 306 307 307 308 309 309 309 310 310 309 309 310 310 310 311 312 313 313 312 312 312 313 313 312 311 312 313 315 317 318 318 318 317 317 318 317 317 317 317 317 318 318 318 318 317 317 317 317 316 315 315 315 315 315 315 315 315 315 315 316 315 315 315 315 315 314 314 313 313 313 313 313 313 314 314 315 314 314 314 314 314 314 315
Wind_Speed
28 26 26 27 27 26 25 25 26 26 27 28 26 24 18 9 12 15 13 10 6 2 4 3 4 5 6 7 8 7 5 4 4 4 6 6 5 5 5 6 7 7 7 7 7 7 7 8 9 8 7 10 11 10 7 6 5 4 4 7 9 5 2 5 7 6 5 4 2 2 2 7 11 12 12 12 12 12 11 6 4 5 6 4 3 5 4
25 24 24 25 24 23 23 24 23 23 24 24 24 22 15 13 19 16 6 4 1 2 3 3 3 4 6 7 9 9 8 6 6 6 5 4 4 4 5 6 7 8 8 9 9 8 7 8 10 10 7 6 10 15 15 8 3 5 5 5 7 6 4 5 6 6 5 6 6 5 4 5 8 8 9 12 15 15 7 1 2 5 9 10 7 6 5
23 22 22 22 21 21 21 21 21 21 21 21 20 18 13 12 14 9 4 4 2 4 2 3 2 4 5 6 7 8 8 8 11 12 8 7 6 4 5 6 7 7 7 8 9 10 9 7 7 7 6 4 6 11 15 11 6 9 10 9 9 6 4 6 8 9 9 9 9 8 5 4 5 5 7 10 15 16 7 2 5 7 6 9 9 6 4
22 21 21 20 19 19 19 20 19 19 19 19 19 16 10 6 5 5 6 5 4 6 2 3 3 4 5 5 5 6 7 7 11 13 11 11 11 8 6 6 6 7 9 9 9 11 12 10 7 6 6 4 2 3 6 7 9 13 14 12 9 2 3 9 11 10 10 10 8 6 6 7 7 9 11 11 13 14 10 6 8 5 4 6 8 6 6
20 19 19 19 18 18 18 18 18 18 18 17 17 13 6 3 2 2 5 6 4 3 0 4 5 5 5 4 3 5 7 6 6 10 9 9 11 9 8 8 8 8 10 10 10 11 12 13 12 10 9 6 5 6 8 7 8 10 10 11 10 2 4 12 14 13 14 14 13 10 11 13 14 14 15 15 15 16 14 12 8 6 5 9 7 6 9
19 18 18 18 18 18 18 17 16 17 16 16 14 9 4 4 4 4 5 4 3 2 4 7 9 8 5 4 4 7 9 7 5 5 4 4 8 8 6 10 12 11 9 8 7 8 9 11 11 9 9 8 8 9 9 7 5 5 4 7 8 3 7 10 13 15 16 18 17 12 12 14 15 16 17 17 17 18 17 16 11 8 8 11 7 8 10
19 18 18 18 18 18 17 16 16 16 15 14 12 6 5 5 6 6 6 4 5 9 11 11 10 8 6 4 5 8 10 8 5 3 4 4 5 8 7 8 7 7 6 4 5 6 7 8 7 6 8 8 7 7 7 5 3 3 3 4 3 2 5 6 9 14 16 18 17 12 12 14 14 16 17 17 19 20 20 19 16 14 13 12 9 11 12
21 20 19 19 18 17 16 15 15 15 14 13 10 6 5 5 5 6 7 7 10 12 11 8 7 6 6 5 5 6 7 5 6 6 6 5 2 5 6 3 3 4 4 4 7 7 5 5 4 4 6 7 5 5 4 2 2 2 3 1 1 2 2 1 5 9 12 14 14 12 14 15 16 17 16 15 16 17 18 17 14 13 12 9 8 9 9
23 22 21 20 18 16 15 14 14 13 12 11 10 6 6 7 6 7 7 7 8 8 7 6 5 5 4 4 3 4 3 5 10 8 8 10 8 3 1 5 7 5 4 6 7 4 3 6 8 8 8 7 4 3 1 2 1 1 3 2 3 3 1 1 3 5 7 8 11 13 15 16 18 19 18 15 13 12 13 11 9 11 10 8 7 6 6
23 23 22 21 19 17 15 14 13 12 11 10 8 6 7 8 6 5 6 6 6 6 6 5 5 4 2 2 4 5 5 7 10 7 5 8 9 5 7 9 7 5 6 5 3 5 9 13 16 15 13 13 11 8 6 4 4 1 2 1 4 4 2 2 0 4 5 3 5 8 9 10 12 15 17 16 13 11 11 9 10 12 11 9 8 7 7
24 24 22 21 20 18 17 14 12 12 12 11 9 8 8 7 5 4 5 6 6 6 4 4 4 3 4 7 8 8 10 10 7 6 5 5 7 9 12 11 7 5 5 5 10 16 22 23 21 17 15 16 15 12 10 8 7 5 2 3 2 5 4 3 1 3 4 2 2 3 5 7 8 8 13 18 18 17 15 12 12 14 12 8 6 7 8
24 24 22 21 20 19 18 16 13 13 13 12 11 11 9 7 5 4 5 5 6 5 4 5 6 6 10 12 11 11 12 11 10 10 11 13 16 16 12 9 7 4 7 15 22 25 23 16 11 10 11 14 14 12 10 9 9 8 5 5 2 4 6 3 1 3 4 1 2 4 6 6 4 1 4 11 16 18 18 16 14 13 13 10 7 8 9
24 23 22 20 18 18 18 16 14 14 14 13 13 12 11 9 5 4 5 6 5 5 6 8 10 13 14 13 11 12 13 14 15 16 15 15 16 14 10 7 8 10 18 23 22 17 10 5 4 5 6 8 7 8 11 12 11 11 7 5 5 2 6 4 1 2 2 1 3 4 4 4 3 2 3 3 5 8 12 14 11 10 12 12 11 11 10
23 22 21 20 18 17 17 16 15 14 14 14 14 14 12 11 8 5 6 6 5 7 9 8 9 11 11 10 10 11 12 14 14 13 12 13 14 12 9 8 11 18 21 17 11 6 2 2 3 3 4 5 4 4 8 9 9 11 10 6 7 2 4 4 3 2 2 2 3 3 5 5 3 2 2 2 2 4 7 9 9 9 11 12 12 12 9
23 21 20 20 19 18 17 16 14 15 15 14 15 15 13 12 11 8 7 6 6 9 10 9 7 7 8 9 10 9 9 9 8 10 12 12 10 9 9 12 18 19 13 6 4 2 2 2 3 4 4 5 5 3 3 5 4 6 8 8 8 3 3 3 3 2 1 3 3 3 6 6 3 2 1 3 4 5 4 5 6 7 9 12 12 11 9
22 21 20 20 20 19 18 16 14 15 16 14 15 16 15 14 13 11 9 9 6 6 7 9 10 12 11 11 12 10 8 6 6 8 8 6 7 11 17 19 15 9 5 5 3 0 2 3 3 4 4 5 5 3 3 4 2 1 6 12 11 5 1 2 4 4 2 3 4 4 5 4 1 3 6 8 8 7 3 5 6 6 9 12 12 10 9
21 21 20 20 20 19 18 17 15 14 15 14 15 16 16 16 15 13 11 10 9 11 15 16 17 15 10 8 10 9 7 6 7 6 4 7 10 14 22 23 12 5 6 4 2 1 3 4 3 4 5 3 2 2 3 4 5 4 6 9 9 5 2 1 5 5 2 2 4 4 4 2 4 7 11 14 10 3 4 7 6 4 8 11 11 10 10
20 20 19 19 18 17 17 17 15 14 15 15 14 15 15 16 15 13 12 11 10 13 17 19 18 16 11 9 10 8 6 7 7 5 6 9 8 10 20 20 9 6 9 4 2 1 2 3 2 4 4 2 2 2 2 3 5 6 6 6 4 4 3 1 4 5 2 2 4 5 3 1 6 12 17 16 7 4 7 6 2 2 2 7 9 10 9
19 19 18 18 17 16 16 15 15 14 15 14 14 14 15 15 14 13 13 13 12 13 15 15 16 19 17 13 13 12 10 10 8 6 6 5 6 17 20 11 2 6 8 3 1 0 1 2 1 2 4 2 1 1 1 2 2 3 5 6 4 3 3 2 1 3 2 1 3 6 4 2 10 19 19 9 3 5 4 1 4 4 1 5 6 7 9
18 18 18 18 17 16 15 15 15 15 15 14 14 15 16 16 14 14 15 14 14 19 22 20 20 24 23 18 17 17 14 13 11 7 5 5 10 20 13 1 2 8 6 2 1 1 1 1 1 2 3 1 1 1 1 1 1 2 1 4 4 5 5 3 1 1 1 1 2 6 4 3 15 21 11 1 2 3 1 2 4 5 7 11 12 11 11
18 17 17 16 16 15 15 14 14 15 15 13 13 14 15 14 14 14 16 15 15 17 17 13 14 18 19 18 18 18 16 16 14 9 8 10 11 9 4 2 6 6 2 3 2 1 1 1 1 2 2 0 1 2 1 1 1 3 3 2 2 3 4 3 3 3 2 1 1 3 4 6 14 14 5 5 9 7 2 2 6 9 10 14 17 17 18
17 16 16 15 15 14 14 13 13 14 13 11 11 13 14 14 13 13 13 14 17 19 18 18 21 25 26 26 25 24 24 25 23 20 18 18 14 9 10 12 10 5 4 4 2 1 3 2 2 2 1 1 1 1 1 1 0 3 4 1 1 3 2 3 3 3 3 2 0 3 6 8 12 11 8 10 10 5 6 11 13 14 15 18 20 21 25
16 16 15 15 14 13 12 12 12 13 12 11 11 13 14 14 13 11 12 15 18 21 24 27 30 32 33 32 26 23 24 24 25 28 28 23 16 13 15 15 10 7 5 3 3 2 2 1 2 3 2 2 3 2 0 1 2 3 4 1 2 5 5 2 1 3 4 4 2 3 5 8 12 13 12 11 10 7 10 20 23 24 27 31 30 30 31
15 15 14 13 12 11 11 11 11 11 11 11 11 12 13 15 13 11 12 13 14 16 18 19 20 22 23 21 16 13 14 15 17 20 21 21 16 10 10 13 11 8 3 5 7 5 2 1 2 2 1 1 2 2 2 2 2 2 4 2 1 6 10 7 1 6 4 3 4 2 5 9 11 12 11 12 12 11 17 28 30 31 35 37 36 36 36
14 14 13 12 11 10 9 9 9 10 10 10 10 10 12 13 12 11 11 11 10 10 9 11 16 19 17 15 14 14 14 13 14 13 14 20 24 20 12 8 6 6 6 11 12 8 3 2 2 1 1 1 1 1 3 1 2 2 3 3 2 6 10 8 1 5 1 0 6 10 10 10 10 10 9 11 13 15 22 31 32 32 34 34 33 34 34
13 12 11 10 8 8 8 8 9 9 9 9 9 10 11 12 11 10 12 11 10 10 8 10 15 16 16 19 21 18 16 16 16 17 17 20 24 25 21 18 14 14 17 19 16 9 4 3 2 2 3 2 2 1 3 2 1 1 2 4 5 7 7 7 2 3 1 2 4 13 16 7 5 6 9 11 15 18 23 27 28 28 29 28 29 30 29
11 9 8 7 7 7 7 7 8 9 8 8 9 10 11 13 12 12 13 11 9 8 7 9 14 20 25 27 21 12 9 11 13 16 20 22 22 23 23 24 24 23 22 19 13 7 4 3 3 2 2 2 2 1 1 1 0 1 2 4 8 5 4 5 4 3 3 2 6 6 10 5 5 7 10 12 14 17 21 26 27 26 25 24 25 25 24
9 8 6 6 6 6 7 7 7 7 7 7 8 10 12 14 15 15 15 13 11 10 9 14 22 27 27 21 12 6 6 8 11 16 20 21 21 22 23 24 25 23 19 12 6 4 3 2 3 2 1 2 2 1 2 1 1 2 2 5 8 5 4 4 4 3 2 1 4 2 4 3 11 15 15 13 12 13 17 23 25 25 24 23 22 23 24
8 6 5 5 6 6 7 7 6 6 6 6 8 10 13 13 14 14 14 13 14 13 14 17 19 18 17 16 14 9 5 5 10 15 17 17 17 18 20 21 22 21 16 9 5 4 3 4 5 4 3 3 2 1 1 1 2 3 5 8 8 4 4 5 5 6 6 4 5 7 8 9 14 19 20 20 21 22 22 23 23 22 21 21 21 23 24
5 5 5 5 5 6 6 5 5 6 6 6 8 10 10 8 7 8 10 11 12 12 11 10 9 12 18 21 16 9 4 2 7 11 15 17 16 17 17 18 19 19 15 10 7 5 3 4 5 5 4 4 2 1 1 2 3 3 8 12 9 6 11 11 6 2 3 9 18 22 20 18 19 22 23 24 26 26 25 24 25 25 23 21 22 22 21
4 4 5 4 4 5 5 4 4 5 5 6 7 6 5 5 5 1 5 9 10 8 7 8 9 13 17 18 15 13 9 3 6 9 13 16 15 15 16 16 16 15 12 9 7 5 3 4 4 2 2 1 1 2 2 3 3 3 9 12 10 12 16 16 12 9 9 16 27 30 25 22 23 22 22 23 25 24 23 23 23 23 21 20 20 19 18
5 4 4 4 4 4 4 4 5 5 6 7 8 7 7 7 5 1 6 9 6 4 4 6 8 8 7 11 15 15 8 1 7 8 10 14 15 14 14 15 14 13 10 7 5 4 3 3 3 2 4 4 2 2 3 5 4 4 8 9 10 15 17 17 16 17 18 24 29 26 20 21 24 22 19 21 22 21 19 19 19 18 17 17 17 16 16
5 3 3 3 3 4 5 6 7 7 7 9 8 7 7 7 5 4 7 9 7 7 5 4 5 4 5 12 15 13 9 2 6 9 8 11 13 11 11 13 12 10 8 6 3 2 2 2 2 1 6 7 4 3 5 6 5 4 6 8 12 17 19 18 18 19 22 25 26 20 16 18 20 19 17 17 17 16 15 15 14 13 13 14 15 15 15
5 4 3 4 5 6 6 7 8 8 9 8 5 4 4 3 4 4 6 9 9 7 4 3 4 4 7 10 8 8 13 7 5 8 5 8 12 10 9 10 9 7 7 6 2 2 2 1 1 1 4 6 4 3 5 6 6 6 6 8 13 18 20 18 17 17 18 21 23 22 20 18 16 15 15 16 16 14 13 14 13 10 10 12 14 14 13
5 5 5 5 7 7 7 8 8 7 6 4 2 2 2 3 4 3 3 5 5 5 3 3 4 4 6 6 2 6 15 10 3 6 3 8 12 9 6 6 3 2 4 4 1 1 1 2 2 2 3 4 4 4 4 4 6 8 7 7 10 14 15 15 15 15 16 16 17 18 17 16 15 16 16 15 14 12 11 12 10 8 9 12 14 13 13
6 6 6 6 7 7 7 6 5 3 2 3 3 2 2 5 6 5 2 4 5 5 4 4 4 3 4 4 3 8 14 10 2 2 3 7 8 6 6 5 2 2 3 2 1 1 3 3 2 3 4 4 4 5 5 5 7 9 9 8 8 10 13 14 13 12 13 14 14 14 14 13 14 14 12 12 11 9 9 10 8 6 8 10 10 9 9
7 7 7 7 6 6 4 3 1 1 3 3 3 3 3 5 6 7 6 6 7 8 6 5 4 5 4 3 4 8 10 7 4 2 2 5 4 4 5 3 2 3 3 3 3 3 5 5 5 6 6 5 6 7 8 8 9 9 10 10 11 13 17 18 15 12 12 11 11 12 12 11 12 12 11 10 9 7 7 8 8 7 7 7 6 6 7
8 8 8 7 5 3 2 2 3 4 5 4 2 3 3 3 3 4 4 3 4 5 6 4 5 6 4 4 6 8 7 5 4 2 2 3 2 3 3 2 3 3 2 3 3 3 4 5 6 6 6 7 9 10 10 11 11 12 13 14 13 14 16 18 16 14 12 9 9 10 11 11 12 11 10 9 7 6 6 6 6 5 4 4 4 5 7
9 8 7 6 5 3 4 5 6 7 6 4 2 2 2 1 1 2 2 2 2 3 4 5 6 6 6 5 7 9 6 3 3 2 1 2 2 2 2 2 2 2 2 3 2 3 2 4 4 5 5 6 8 10 10 11 13 13 14 15 14 12 13 14 14 12 11 9 8 9 9 9 9 9 8 8 7 6 6 5 4 4 4 4 4 5 6
9 9 8 7 6 5 5 7 7 5 3 2 2 2 1 2 2 1 0 1 2 4 5 4 4 5 7 6 5 6 4 3 3 3 2 1 1 0 1 2 2 1 3 3 2 3 2 5 4 4 5 5 6 8 9 10 11 12 12 12 12 12 12 11 10 9 9 9 9 9 9 9 9 9 8 8 7 6 6 5 5 6 6 5 6 7 7
11 10 9 8 8 6 5 4 4 2 1 1 1 1 1 1 2 2 1 2 2 2 4 4 2 2 4 6 5 5 6 6 5 4 2 2 4 2 1 3 2 1 3 2 2 3 2 5 4 3 4 6 7 8 8 8 10 11 11 11 11 11 11 11 10 10 9 9 8 8 7 7 7 7 7 7 6 6 6 5 6 7 7 8 9 10 9
12 10 9 9 8 6 4 3 2 1 1 0 1 1 1 1 1 2 2 2 2 1 3 4 2 3 5 6 7 8 8 5 4 3 2 1 4 3 2 2 1 2 3 2 3 1 3 5 4 4 5 6 7 8 8 8 10 11 12 12 12 11 11 11 10 9 9 8 7 6 6 5 6 7 7 7 6 6 6 6 7 7 8 9 10 10 9
10 9 9 8 6 5 4 2 2 2 0 0 1 1 1 0 1 1 1 2 3 3 2 2 3 5 5 5 6 8 7 4 3 2 0 1 3 2 2 2 2 3 3 2 1 1 4 4 4 4 5 6 8 8 8 7 9 11 13 13 13 13 13 12 12 11 10 9 8 7 7 7 8 9 8 8 8 7 7 7 7 8 9 10 10 10 10
7 7 6 5 4 4 3 2 2 2 2 1 2 2 2 2 2 1 1 2 3 3 4 6 6 5 4 4 5 6 5 3 2 1 1 2 2 2 3 3 2 2 2 2 2 3 4 4 5 6 8 9 10 8 7 7 9 11 13 14 14 15 15 15 15 15 15 14 12 11 10 10 10 10 10 10 10 9 8 8 7 8 10 10 10 11 12
7 7 6 3 4 5 4 2 2 2 2 1 2 1 2 3 2 1 3 5 5 6 8 9 6 4 6 7 5 3 3 3 3 2 1 2 2 3 2 1 1 2 2 2 3 3 4 4 5 6 9 10 9 6 6 8 9 11 13 14 15 15 16 16 17 17 17 17 16 15 14 13 12 12 11 11 10 10 9 9 8 8 9 10 10 12 13
8 8 5 2 2 5 4 2 2 3 2 2 4 4 4 4 5 7 9 10 9 9 9 9 6 6 6 4 2 2 3 3 3 2 2 1 2 2 2 2 1 2 2 2 3 4 4 3 3 3 5 7 5 4 6 8 9 10 12 14 14 14 16 16 17 17 17 17 17 17 16 16 15 14 13 12 10 9 8 8 8 8 9 9 11 12 12
6 6 4 2 2 4 3 2 2 4 5 7 10 12 12 12 12 13 13 12 10 10 10 9 7 6 4 2 1 1 3 4 2 2 3 2 2 2 1 1 2 3 2 2 4 4 2 2 4 6 6 6 5 5 7 9 11 11 12 12 13 14 15 16 17 17 16 16 16 16 16 16 15 15 15 13 11 9 8 7 8 8 9 9 10 10 10
6 5 4 2 2 2 2 3 7 10 11 11 13 14 14 12 12 11 10 9 9 9 8 6 4 2 1 0 0 1 4 4 3 2 2 1 1 1 2 2 2 2 2 2 3 2 2 4 7 7 5 4 6 7 10 12 13 12 11 11 12 13 14 15 16 16 16 15 15 15 15 15 15 15 15 14 13 12 10 9 9 9 9 9 10 9 9
10 6 4 1 1 2 4 7 8 9 10 11 10 10 9 7 7 9 12 11 7 5 4 3 2 1 1 1 2 2 2 3 2 2 2 2 2 2 2 2 3 3 2 1 1 2 4 7 7 5 3 5 7 9 10 12 13 13 12 10 9 10 11 12 13 13 13 13 13 13 12 12 13 13 13 14 13 13 12 11 11 10 10 10 10 10 10
9 6 4 3 1 3 6 7 4 4 8 11 12 14 14 12 12 17 19 14 7 2 1 2 2 2 1 1 2 2 2 2 1 1 2 4 4 2 2 3 3 3 2 2 3 5 7 7 6 4 5 7 8 9 10 11 13 13 12 9 7 6 7 8 9 9 9 9 9 9 10 10 10 11 12 12 12 12 11 11 11 11 10 11 11 11 10
7 5 5 5 5 6 8 7 3 3 8 11 14 18 20 19 19 21 19 14 8 4 2 1 2 1 2 3 3 1 1 2 1 2 3 3 2 2 3 4 3 3 4 6 6 7 7 7 7 7 7 7 8 8 8 9 10 11 11 10 8 5 4 5 5 5 5 5 6 6 7 8 9 10 10 10 9 9 9 10 11 12 12 12 12 12 12
6 6 6 7 10 13 12 8 6 7 10 14 18 21 22 22 22 21 19 17 13 8 3 2 2 2 2 3 2 0 0 1 2 3 3 3 3 3 3 3 3 5 6 7 6 6 7 7 7 7 7 7 7 7 6 7 8 9 9 9 9 7 5 4 4 3 2 2 2 3 4 6 7 9 9 9 8 8 9 9 10 10 11 12 12 12 12
Wind_Direction
313 314 315 319 323 324 325 328 330 336 340 339 338 342 343 322 300 311 315 305 298 256 246 234 205 226 252 275 275 269 264 250 248 242 215 212 213 207 215 215 220 226 225 230 229 223 242 243 232 238 239 233 239 238 213 163 148 182 202 193 182 158 152 207 222 237 237 229 185 151 230 216 212 213 204 201 208 211 218 215 169 188 196 163 196 238 209
316 316 317 321 325 325 325 327 330 337 343 342 340 340 334 306 302 309 318 334 346 191 254 267 233 258 274 277 274 263 258 257 251 244 227 213 198 199 212 208 219 226 214 223 224 206 220 236 227 230 235 228 237 241 239 234 205 203 207 179 170 174 186 197 211 230 233 225 214 204 203 207 215 217 206 208 211 211 214 116 147 216 198 185 212 229 192
313 315 316 319 323 323 324 326 328 335 341 341 338 334 326 311 304 301 311 327 264 221 294 347 303 317 317 293 276 261 254 247 242 244 247 241 229 224 230 218 222 227 216 224 226 211 219 238 230 223 223 229 247 242 238 233 217 224 221 187 170 185 192 186 200 218 220 217 217 213 199 193 215 213 201 210 211 205 192 148 210 222 188 188 220 226 180
308 310 312 313 316 317 319 322 325 333 339 340 336 329 321 314 303 295 315 322 258 234 274 19 2 347 336 306 280 256 253 252 246 241 237 236 234 236 242 233 232 237 230 237 238 226 228 234 236 236 231 230 233 230 239 230 225 246 242 204 182 186 186 190 202 215 219 219 217 198 180 189 208 209 202 202 206 203 195 200 217 204 154 199 222 217 207
307 309 311 310 310 310 313 317 321 329 337 340 336 326 306 281 292 319 334 323 288 237 116 35 358 334 322 306 303 286 277 281 255 232 225 228 225 226 231 227 229 230 224 232 240 233 231 231 236 248 252 256 268 284 294 271 243 272 268 205 183 183 209 200 205 213 219 222 216 195 191 205 209 210 209 199 194 197 201 213 209 152 166 219 208 192 215
305 307 309 309 308 306 308 311 315 323 333 340 338 321 268 256 292 333 345 311 282 293 324 339 330 310 295 279 285 289 283 288 279 241 252 257 216 208 216 219 223 230 226 231 237 229 229 233 237 243 245 255 270 278 283 257 233 328 317 192 174 213 224 203 206 217 221 225 222 200 196 214 214 211 211 201 194 195 202 215 206 161 199 230 199 181 208
296 299 303 304 305 304 304 306 310 316 324 335 340 316 272 282 293 311 332 306 286 297 302 311 309 293 289 271 258 274 278 286 306 297 302 295 219 209 219 211 213 240 246 247 241 227 228 234 232 227 231 237 244 254 257 225 199 9 357 187 173 242 233 200 208 223 226 229 227 204 198 218 222 215 212 202 199 199 201 210 204 190 213 228 199 192 206
293 295 297 297 299 300 300 301 304 310 315 324 334 315 281 292 296 306 326 312 289 289 291 298 302 293 290 268 254 274 281 300 341 324 278 275 236 199 215 236 346 315 268 244 233 233 254 269 263 246 239 232 216 226 247 225 184 45 38 28 269 252 249 176 193 225 236 234 229 212 206 218 225 223 218 207 203 203 206 212 204 195 211 222 201 203 216
294 295 294 292 291 291 294 294 295 301 306 311 321 318 294 299 294 283 297 299 284 284 290 297 301 293 277 261 283 309 305 335 340 312 252 246 257 253 353 355 346 320 274 252 239 246 315 297 281 278 269 265 254 229 259 343 318 62 64 360 296 262 251 123 168 225 240 227 226 224 214 215 227 229 222 210 202 202 208 210 197 190 201 211 209 213 228
293 294 293 291 287 285 286 288 288 290 292 293 301 307 310 317 309 266 265 279 280 286 297 291 279 276 277 325 335 314 306 331 333 309 263 250 255 289 3 358 337 308 285 274 277 316 313 291 279 274 265 263 267 257 250 271 283 269 92 25 299 296 328 11 224 243 252 239 229 226 211 213 230 231 222 214 205 203 209 208 201 200 200 202 207 215 227
292 292 292 290 288 284 281 280 280 278 278 278 279 288 302 317 324 287 267 269 270 274 282 272 261 277 325 334 332 312 303 315 316 295 298 296 287 313 335 328 304 283 282 307 320 312 303 294 281 267 254 251 253 247 239 239 238 232 159 129 265 303 327 346 324 266 279 317 99 164 203 222 229 220 216 215 208 205 210 211 209 211 209 206 212 216 219
291 289 288 288 287 285 279 275 275 271 269 270 271 277 286 296 309 292 262 266 275 274 277 272 265 284 304 305 306 301 296 300 299 288 284 285 286 295 309 302 273 272 311 314 314 311 306 294 269 244 238 241 242 236 234 229 216 210 186 143 155 315 325 322 246 264 285 340 139 201 228 238 253 248 204 215 216 213 215 218 216 212 209 209 219 223 219
294 289 286 284 283 282 277 273 272 270 265 263 263 264 268 277 285 258 251 270 274 266 274 277 273 278 283 285 293 296 293 295 298 289 276 275 281 288 293 276 265 297 314 312 311 312 307 279 232 211 209 219 228 228 228 225 206 192 184 142 119 341 313 304 246 243 262 237 212 239 279 305 313 12 101 164 206 206 212 226 232 219 209 208 214 222 221
295 290 285 282 280 277 275 273 273 272 264 256 256 258 258 263 266 246 246 262 263 271 282 288 287 282 274 280 298 305 304 304 302 292 278 273 278 285 285 276 290 310 314 308 301 293 267 258 252 222 187 181 193 212 214 216 207 194 187 144 109 135 263 279 274 239 238 274 266 273 298 289 244 180 133 140 178 185 203 226 226 204 199 203 211 222 220
295 291 285 282 280 277 275 275 274 273 267 256 254 257 254 255 258 248 239 245 266 283 273 254 265 291 294 297 306 312 312 311 309 304 294 280 276 287 301 306 312 317 311 280 264 254 217 245 238 212 199 194 198 196 178 188 216 212 181 132 103 121 227 251 276 271 264 292 299 299 285 269 201 146 17 349 321 304 279 246 224 191 186 196 207 217 213
294 293 287 282 279 277 275 273 271 269 268 261 257 257 254 252 251 246 243 242 252 275 259 248 279 304 304 295 296 299 295 297 314 312 301 296 307 315 321 323 326 329 305 246 233 234 226 236 228 216 223 209 192 186 168 166 172 172 139 122 112 114 169 219 256 269 270 278 294 293 275 277 12 17 348 338 323 313 287 234 219 190 181 192 201 205 203
294 293 289 283 279 277 275 274 270 264 262 262 259 259 259 255 246 239 237 235 240 257 264 273 291 304 301 289 291 291 283 292 315 317 305 316 319 320 328 334 343 358 332 287 200 165 229 229 236 233 228 216 187 188 172 164 162 149 138 126 117 115 95 305 273 268 263 278 289 277 256 294 6 355 335 327 321 299 209 214 208 166 170 184 193 197 196
292 290 288 284 280 278 276 273 269 262 258 259 260 260 260 255 244 235 234 235 244 259 263 267 277 281 281 289 293 288 291 304 312 316 301 298 306 327 331 331 333 349 348 338 197 221 229 209 230 246 240 255 242 216 191 186 183 166 152 137 115 111 103 11 280 269 265 262 278 285 269 346 6 340 326 321 309 209 202 213 235 359 177 179 186 187 177
292 289 289 288 284 281 277 272 267 262 258 256 255 253 253 252 246 236 233 236 244 258 261 261 269 275 281 291 289 281 287 296 298 311 303 282 341 341 326 309 297 341 340 334 220 298 191 177 147 248 241 245 262 259 249 216 196 152 153 152 133 129 132 110 262 268 291 268 285 298 282 74 6 338 324 313 253 204 207 281 339 338 56 128 140 147 145
295 292 290 289 286 282 277 272 268 264 260 256 252 249 250 253 250 238 235 240 248 262 269 266 266 271 275 278 278 278 283 286 281 283 273 269 339 343 330 227 44 346 330 322 23 57 176 185 147 247 247 237 5 293 279 269 31 57 138 179 162 159 161 145 172 233 334 59 279 289 278 15 356 342 330 305 285 280 274 7 15 36 83 101 97 96 111
296 296 292 288 284 279 275 271 269 267 263 256 251 252 255 255 252 245 245 247 250 263 274 268 255 260 263 262 265 265 268 271 264 261 279 291 316 337 320 294 337 337 334 351 340 306 359 18 210 260 274 265 295 286 289 268 92 44 1 294 166 149 169 168 167 190 192 166 230 301 310 341 347 344 336 323 325 319 298 93 72 64 76 93 92 89 99
296 298 296 289 282 277 273 270 269 268 265 256 248 251 255 256 256 251 246 246 249 256 265 268 268 270 268 264 261 258 258 260 257 258 272 284 286 270 265 289 305 272 258 317 325 277 340 335 278 310 349 5 334 335 310 249 182 19 2 2 60 1 291 194 169 180 175 144 93 315 314 329 346 353 346 336 340 5 76 88 84 72 71 82 86 89 97
294 297 296 290 283 278 273 271 267 264 264 259 249 247 252 257 260 256 250 255 262 268 275 279 279 277 275 273 272 270 265 260 255 255 258 261 266 265 256 260 265 249 250 322 357 328 333 330 305 330 354 342 337 328 311 76 53 5 360 22 26 3 358 360 152 155 130 106 104 295 317 347 3 3 4 9 8 16 68 84 84 79 80 84 85 86 90
293 296 296 291 285 280 274 271 268 263 263 260 251 249 256 259 257 257 258 261 272 284 289 282 270 268 275 282 285 280 268 254 248 253 249 239 239 251 251 247 247 242 258 358 355 326 285 257 289 318 346 320 320 299 306 66 84 5 349 346 359 17 13 5 191 170 147 134 158 155 5 5 6 3 11 31 33 36 67 81 82 82 85 87 88 88 88
293 296 295 288 283 279 274 269 265 262 263 262 257 255 260 262 259 257 256 259 271 286 293 283 273 275 287 294 285 273 271 267 261 259 248 234 230 233 244 256 245 233 275 322 334 328 298 264 269 300 285 220 170 254 285 321 81 23 11 27 6 348 354 358 184 177 156 193 160 130 86 35 11 13 21 31 37 48 70 81 84 85 87 88 89 91 90
295 296 292 283 277 276 270 263 260 261 263 265 262 257 257 263 266 258 252 259 269 269 267 276 280 287 299 300 293 286 283 278 265 250 242 238 238 240 251 263 262 257 273 295 307 304 272 255 260 262 262 230 170 199 254 254 26 36 66 40 352 310 318 346 324 202 96 12 169 130 109 78 2 31 55 56 57 61 73 83 86 85 85 84 85 86 86
301 300 289 276 276 275 266 259 260 263 264 265 266 264 261 264 266 263 258 260 266 265 263 273 285 298 304 301 298 294 279 263 246 233 232 236 241 244 248 254 258 263 274 288 298 285 240 235 252 246 242 245 231 199 183 201 310 97 105 22 358 331 323 350 319 214 139 160 211 149 109 132 177 121 89 79 77 73 74 80 82 81 82 83 82 81 81
304 304 292 277 278 277 268 265 266 268 272 274 271 271 272 271 271 270 263 253 250 257 273 284 291 300 306 305 306 312 288 252 226 223 228 233 237 240 242 245 249 255 264 276 291 277 250 259 271 261 237 222 215 168 129 159 130 87 56 349 347 345 330 323 292 272 345 307 233 278 24 113 145 127 108 98 97 90 81 80 83 84 84 86 86 84 83
297 293 292 287 283 274 267 267 269 273 279 282 283 286 287 284 278 268 256 244 240 249 270 285 290 294 301 307 313 320 303 230 215 220 223 225 228 232 235 238 239 242 246 253 265 269 271 277 273 265 256 249 224 168 116 109 86 50 6 337 329 341 356 334 292 281 318 17 92 91 75 93 115 118 113 106 102 100 92 85 86 88 86 86 87 86 85
294 285 290 287 275 270 271 270 273 279 281 287 297 302 303 304 294 263 241 228 223 232 258 283 291 294 299 304 315 339 2 231 219 219 217 217 222 227 229 230 233 234 235 240 253 269 287 280 268 259 257 261 256 138 97 99 97 44 8 351 343 27 46 34 22 353 25 72 94 101 100 100 104 108 105 101 102 103 98 92 92 94 94 94 93 90 89
304 293 295 289 277 284 289 279 275 283 284 287 296 298 298 323 343 334 193 194 202 222 259 281 290 296 299 302 316 336 339 294 210 207 211 213 220 228 228 225 225 225 223 227 245 263 274 269 272 304 331 313 87 51 37 89 108 32 4 1 13 48 54 49 54 73 86 96 101 99 94 92 97 96 89 89 96 100 98 93 91 91 93 93 92 90 89
323 307 298 295 289 288 290 285 284 287 284 284 292 293 288 297 315 280 170 179 203 266 298 298 299 300 299 309 326 342 353 192 185 192 205 211 215 220 222 221 222 222 220 221 236 249 252 254 266 336 26 51 86 82 62 74 74 8 356 7 36 59 64 61 63 74 88 96 98 95 83 80 86 87 83 87 93 93 93 93 90 89 92 92 86 84 83
346 333 300 281 278 281 287 289 290 291 296 300 303 303 294 283 270 240 204 202 238 289 301 297 304 298 290 308 326 356 17 20 186 179 190 203 202 200 203 208 213 218 219 218 230 262 279 280 267 41 52 51 64 98 76 58 44 25 22 35 55 68 73 73 69 69 75 81 85 86 80 77 81 82 83 86 85 82 83 86 83 82 85 84 79 76 72
352 345 320 297 295 297 296 296 296 297 303 310 317 325 316 277 247 250 227 218 242 275 281 271 284 298 306 305 314 1 5 354 186 178 182 188 184 177 176 185 194 204 206 207 240 303 305 336 359 63 56 39 33 75 72 47 45 55 47 49 66 74 76 76 75 74 75 80 85 88 88 87 87 85 79 73 68 63 62 60 53 45 46 54 58 56 52
343 339 329 315 309 304 298 299 302 302 309 328 354 358 309 246 237 237 183 192 231 261 268 262 266 293 319 310 283 354 357 358 179 187 176 163 170 170 155 155 171 201 190 190 235 339 10 18 10 38 57 37 38 64 65 40 50 61 50 41 60 71 71 70 75 81 85 90 92 91 90 90 88 84 79 75 69 63 61 58 47 29 29 40 42 37 33
340 336 328 319 316 315 310 304 299 297 335 2 348 318 264 244 253 264 236 209 230 248 273 291 278 279 315 317 301 333 347 360 57 179 165 156 164 171 158 146 131 129 138 142 133 47 31 14 31 74 73 57 52 62 63 53 55 58 55 57 76 95 98 95 93 93 94 96 97 95 92 91 90 89 90 92 92 91 88 83 73 57 47 43 35 27 23
341 338 335 332 331 329 327 323 308 334 352 341 308 285 267 251 255 263 264 258 252 248 256 278 279 270 276 280 291 312 329 349 7 2 166 152 143 159 169 158 133 140 125 96 98 74 42 46 78 83 73 70 65 59 60 66 64 58 63 84 111 124 121 120 124 121 111 110 115 116 115 116 119 119 115 109 105 101 92 83 75 65 56 45 29 17 8
352 348 346 347 349 345 339 331 316 320 330 329 301 290 292 271 253 253 252 252 248 239 233 243 261 257 234 230 276 303 318 328 334 332 168 153 134 161 180 141 116 136 121 90 85 56 45 71 88 85 85 81 67 55 56 65 69 69 79 98 117 130 132 135 142 142 134 133 138 138 137 136 133 130 126 119 112 102 91 84 78 70 61 42 17 1 348
360 356 354 354 352 337 317 312 312 314 319 315 296 292 285 249 259 267 230 208 234 237 224 231 249 241 217 230 286 309 315 301 313 348 121 160 157 167 177 133 106 129 132 109 58 12 69 108 96 83 93 84 60 52 55 64 72 78 87 98 109 122 133 142 151 155 154 154 152 150 151 148 140 133 127 120 113 106 97 90 80 69 58 40 22 7 355
3 359 353 345 341 334 318 308 311 320 325 307 285 293 278 251 256 260 218 249 253 228 216 230 256 248 234 242 283 314 306 275 292 332 2 7 5 21 159 118 73 91 126 115 15 337 107 120 108 98 102 86 61 56 57 62 73 84 92 99 105 110 120 131 142 149 150 146 145 147 147 141 134 127 119 113 113 108 97 80 63 55 50 41 33 26 17
352 349 342 332 332 340 334 316 308 309 305 279 258 263 281 259 239 222 239 282 279 219 218 227 242 257 245 235 241 272 287 285 283 281 287 358 359 355 125 105 58 65 115 92 347 318 115 113 107 97 80 64 60 66 70 72 78 87 96 105 110 113 118 125 131 138 141 141 141 138 131 121 115 106 100 99 100 94 81 62 48 42 39 36 33 28 22
335 330 327 324 329 340 344 338 336 333 308 290 281 265 253 260 257 234 225 251 306 294 237 224 242 308 298 267 251 265 283 297 294 267 237 2 359 7 98 101 66 91 97 40 326 294 127 112 101 89 76 61 54 59 71 84 89 93 98 102 105 110 116 120 122 127 130 132 129 120 109 98 88 80 77 76 70 65 60 51 45 43 41 37 32 27 23
333 329 330 331 337 350 355 350 352 350 344 109 4 336 320 297 317 292 240 271 305 321 311 292 319 328 322 295 273 273 279 292 302 285 189 48 2 15 64 60 51 89 88 42 349 88 101 99 96 93 93 87 74 64 68 82 94 98 99 97 96 97 97 95 95 95 94 95 95 89 80 74 68 65 64 62 56 51 48 45 47 49 44 36 30 26 25
348 344 344 341 341 349 352 348 358 12 25 29 6 350 338 334 351 11 340 310 319 338 345 341 342 341 328 311 298 286 281 295 318 335 43 31 16 40 63 54 61 93 94 56 49 72 82 86 79 63 60 66 72 76 85 94 98 100 99 96 93 91 86 83 82 80 77 76 76 72 68 66 61 57 55 54 51 51 51 55 58 55 47 39 33 28 25
9 1 357 358 355 358 3 358 350 7 22 5 350 344 328 321 316 291 299 306 304 307 320 331 330 297 285 297 304 296 301 345 32 45 359 350 37 54 42 28 67 80 64 50 54 59 67 77 72 56 52 54 56 66 88 98 99 100 99 95 90 85 80 76 74 72 70 69 67 65 62 58 53 49 47 46 46 51 57 61 61 54 47 40 32 27 25
25 15 15 37 15 2 8 19 10 18 23 339 311 290 274 275 271 271 283 291 290 290 303 313 299 273 278 297 303 296 320 357 44 39 327 337 78 60 330 288 54 56 42 57 70 65 69 87 92 74 70 72 69 69 85 94 96 95 94 91 85 78 73 70 68 68 68 66 63 61 58 54 50 49 47 45 44 47 51 54 54 50 42 34 27 26 26
30 17 21 62 24 360 12 32 343 321 297 285 288 289 287 285 284 286 289 289 284 286 299 302 283 264 272 285 266 325 5 29 54 19 353 21 94 78 357 8 63 52 29 56 69 66 72 95 83 72 74 90 103 97 88 87 88 87 87 86 81 74 69 68 68 69 70 68 65 62 58 54 51 50 49 48 47 46 48 53 53 47 38 32 31 33 35
29 16 19 35 29 4 348 324 319 316 305 292 291 297 296 283 277 291 311 313 295 286 290 293 276 243 243 323 61 49 26 24 36 37 15 19 105 78 39 42 58 51 39 58 71 76 63 58 61 64 72 89 90 81 76 76 76 75 78 82 79 72 68 69 72 76 78 76 72 67 62 58 55 53 52 53 53 53 55 59 58 53 50 48 47 47 46
38 41 46 62 186 236 288 297 299 310 319 315 312 319 317 292 287 328 353 354 335 297 274 277 301 327 336 11 56 64 24 7 24 45 20 26 59 65 49 45 58 64 62 35 20 59 64 59 58 66 80 77 73 71 70 70 68 65 66 71 76 77 78 78 80 84 86 83 77 72 67 64 61 57 56 56 54 53 55 56 55 54 55 54 51 50 49
34 42 46 33 334 302 314 309 284 293 326 338 351 360 358 352 354 3 7 6 2 20 88 53 30 35 38 32 55 65 36 11 29 45 37 44 53 57 61 67 69 80 102 106 80 74 72 64 58 64 73 71 68 68 67 66 65 63 60 59 65 83 96 95 92 93 94 91 87 80 73 66 63 60 57 55 52 50 50 49 47 47 47 46 45 44 42
20 26 20 10 1 344 332 324 306 310 330 341 353 0 1 360 1 6 12 19 32 57 75 24 356 18 48 42 43 40 324 322 357 41 51 46 26 29 65 79 78 76 86 86 80 77 73 65 63 70 74 69 65 64 64 64 63 61 60 58 56 69 103 117 114 107 101 98 96 90 76 64 58 53 51 51 53 53 52 49 45 42 40 39 37 35 32
15 360 348 355 1 358 350 341 335 338 343 349 357 3 7 7 7 12 26 39 48 52 48 11 18 53 64 49 40 352 300 10 32 45 50 45 34 37 53 56 50 60 70 69 63 64 67 65 65 67 67 62 59 59 60 61 59 56 57 57 57 61 81 107 113 111 106 94 78 69 63 58 55 49 44 42 43 46 45 42 39 37 36 33 31 29 28